RH
25 30 38 41 48 52 53 56 59 65 59 71 79 80 77 67 66 75 97 88 89 86 59 77 76 64 83 71 70 93 57 40 20 18 16 16 17 17 19 22 22 25 23 32 44
30 22 28 36 44 48 48 48 60 57 56 55 75 80 79 73 95 98 66 83 80 80 90 78 65 64 69 94 67 89 96 35 18 17 19 18 18 18 17 19 21 29 32 38 49
28 33 23 28 34 45 52 50 51 49 49 50 59 75 88 79 88 70 72 75 81 80 92 70 54 62 71 81 95 80 92 75 20 26 26 21 19 19 16 19 18 23 33 45 49
17 32 33 25 27 30 38 44 37 43 46 50 50 67 90 93 74 56 62 62 74 73 92 73 55 54 71 78 77 87 67 67 42 30 27 22 20 19 17 18 18 19 34 44 45
22 20 29 32 24 28 31 34 35 40 46 50 48 65 88 94 74 62 49 64 67 69 85 67 50 52 55 58 69 74 83 76 64 33 27 25 23 19 17 19 20 27 37 40 42
27 24 21 31 30 24 30 33 37 38 46 49 49 66 93 76 61 66 58 68 86 89 80 68 47 46 45 41 64 64 70 86 90 46 26 24 21 24 18 20 24 33 37 39 41
28 30 28 31 32 26 27 32 34 38 41 47 57 67 95 71 54 54 58 64 82 83 79 69 50 44 38 41 54 64 80 75 74 61 26 25 24 26 18 23 25 32 35 38 40
43 35 32 29 36 35 25 28 31 36 40 47 53 89 75 57 57 48 43 45 45 64 72 61 61 50 43 44 40 68 62 84 64 48 28 25 24 15 18 22 24 27 32 38 40
84 57 44 37 30 38 34 26 29 34 38 45 47 78 53 51 50 41 45 46 44 56 64 57 60 46 34 47 50 46 64 65 40 30 30 25 22 12 22 20 22 25 29 36 41
99 96 78 53 39 32 35 31 29 34 38 58 68 63 51 41 41 42 40 49 44 52 57 51 50 44 38 60 77 52 45 50 34 32 28 30 24 15 21 20 18 22 26 34 40
99 99 97 84 54 39 36 54 64 62 67 39 40 38 33 40 36 41 45 47 46 46 50 43 61 68 46 35 41 41 41 42 29 30 27 30 23 16 17 21 17 20 24 32 40
67 89 97 96 76 42 37 52 45 57 44 48 39 37 36 40 39 43 47 44 44 48 38 43 58 47 27 27 35 24 43 30 26 29 25 21 21 16 13 21 19 18 21 31 39
69 48 74 95 88 51 66 60 52 42 40 32 36 42 36 41 31 35 46 42 36 42 42 44 32 38 27 25 25 15 35 26 27 30 27 24 22 20 14 15 20 18 20 28 37
80 80 45 78 78 82 69 60 50 45 48 30 37 39 38 39 33 30 42 39 33 38 37 36 26 34 28 27 23 24 15 22 29 27 21 22 13 8 14 17 18 20 21 26 35
88 69 66 65 98 95 73 51 55 72 69 32 42 42 36 36 35 32 41 36 32 30 33 40 32 31 30 28 22 27 19 22 33 26 19 25 23 11 14 21 21 20 22 27 35
76 55 57 66 94 95 73 52 67 63 76 42 42 47 42 35 32 41 40 35 29 25 27 31 29 27 27 22 21 26 26 26 27 24 34 15 17 10 18 17 18 19 24 29 37
84 65 59 51 87 98 81 76 65 69 25 36 47 43 42 38 33 37 39 41 33 40 35 29 28 26 30 32 27 21 26 47 47 62 37 20 13 12 15 17 13 20 23 31 40
94 64 46 56 78 56 99 63 69 29 27 33 36 40 41 32 33 34 34 38 29 20 30 42 42 32 28 26 34 25 24 52 49 41 28 30 26 14 15 23 29 30 25 33 43
78 91 44 72 95 91 99 89 45 30 20 28 39 43 43 33 30 32 29 30 27 19 26 29 28 26 27 29 25 30 36 19 32 36 29 28 18 22 26 27 30 32 31 37 44
92 93 69 90 99 99 96 77 41 29 24 26 34 31 36 36 39 33 30 22 25 20 18 18 29 34 37 35 36 30 20 34 44 65 24 17 18 17 30 29 31 35 36 43 48
83 84 57 80 98 98 93 71 52 43 36 31 31 22 22 30 37 32 21 19 20 21 21 20 26 44 40 39 31 40 35 29 30 18 27 23 19 20 18 24 31 36 39 44 50
96 80 59 74 95 92 79 70 60 58 38 36 33 35 31 22 29 28 28 19 17 17 25 21 23 52 40 37 33 26 22 23 32 31 24 36 37 24 21 22 29 33 39 46 53
84 69 64 94 94 74 63 82 71 53 73 61 39 30 26 28 32 30 26 23 21 21 24 23 38 57 47 45 40 43 34 27 33 52 32 24 20 27 28 27 31 36 42 51 58
88 73 47 80 92 96 85 64 57 52 61 53 57 32 29 33 27 29 29 39 29 24 29 26 27 29 30 26 37 44 36 34 33 80 27 24 22 35 34 34 34 41 48 54 62
79 61 77 84 73 78 68 88 80 69 50 53 69 56 38 35 28 34 32 44 39 37 34 29 76 24 20 29 31 31 35 37 50 39 46 22 19 18 30 33 35 44 51 58 59
90 85 68 75 52 56 70 71 88 89 89 80 84 66 44 40 27 32 31 34 34 36 34 32 77 60 62 42 34 39 30 34 36 34 26 24 22 18 24 32 38 46 53 54 52
91 98 99 66 54 59 64 73 77 76 63 57 65 93 53 41 25 20 22 25 29 38 37 41 65 71 43 45 51 64 40 33 36 31 28 31 20 26 30 36 40 47 52 49 47
Wind_Speed
11 12 11 11 12 10 11 15 16 15 21 20 14 13 10 10 12 14 17 13 14 23 9 10 14 13 12 15 9 11 2 4 8 4 3 5 10 6 3 9 6 6 4 7 23
14 13 13 12 12 13 11 14 17 16 14 19 14 12 10 8 8 16 20 15 20 13 9 14 18 17 13 8 11 6 3 2 6 8 7 3 11 10 8 11 8 8 7 18 21
17 16 15 14 14 14 14 13 17 15 11 14 16 11 9 6 10 21 17 19 17 18 15 14 16 20 17 10 10 8 5 6 2 9 8 8 10 8 8 10 11 15 17 19 21
20 18 18 16 15 15 14 14 16 15 10 9 16 14 9 6 6 5 11 14 13 15 14 15 17 24 8 9 9 6 16 10 5 8 9 6 9 8 13 3 1 8 20 22 21
19 20 20 16 16 15 14 14 12 16 10 5 13 13 7 9 18 9 8 14 13 15 18 17 20 23 17 19 14 11 15 22 12 10 10 10 10 12 11 4 5 14 20 22 20
19 20 20 18 16 15 13 13 12 13 11 4 8 10 9 16 11 13 7 5 12 16 19 18 16 23 12 24 17 18 15 19 14 11 8 8 10 3 11 11 11 16 19 20 19
17 18 20 19 17 16 14 13 12 10 13 7 6 6 11 18 7 9 16 14 14 15 16 18 19 14 10 17 11 9 10 11 9 9 4 5 13 13 8 12 15 17 18 18 18
18 18 18 19 18 16 15 14 13 12 9 12 5 8 11 11 14 17 11 13 13 14 12 11 15 11 13 6 6 11 8 11 16 12 6 6 13 16 18 17 18 19 19 19 19
21 19 19 18 17 16 15 14 15 12 12 12 7 10 12 14 18 19 18 13 11 13 13 10 12 10 4 8 5 10 11 17 8 16 7 10 8 9 13 18 19 21 21 20 19
17 20 21 19 18 16 13 13 13 11 10 8 8 5 18 12 10 15 19 15 11 11 8 15 13 9 13 6 10 17 14 17 12 12 11 11 14 7 10 17 20 22 22 22 21
18 19 21 21 19 19 14 6 5 5 16 15 13 14 2 11 9 13 16 13 14 14 17 22 10 17 24 21 20 20 14 16 14 13 9 16 18 19 13 16 20 24 25 24 23
20 22 21 22 19 18 12 7 8 5 11 23 31 27 16 12 8 13 16 16 18 15 20 15 18 26 22 21 22 13 18 12 5 11 9 9 21 19 15 20 24 26 27 26 24
21 20 21 24 19 8 7 12 14 10 10 20 30 30 28 19 17 19 23 25 18 20 23 21 22 26 22 18 14 12 16 11 1 7 5 6 14 19 20 23 24 26 27 27 29
25 24 20 20 12 7 9 6 6 5 6 7 8 11 31 15 12 18 29 21 13 21 22 17 23 23 15 18 19 16 7 7 11 10 7 15 8 21 22 22 21 29 30 30 30
25 24 21 13 16 11 8 8 2 4 7 6 7 6 23 20 12 17 27 20 14 15 18 14 20 15 18 21 19 10 8 9 11 11 4 10 6 12 15 18 21 25 31 31 31
27 27 24 15 18 15 8 6 5 5 10 7 8 12 18 26 8 14 22 17 7 17 16 19 4 12 18 15 12 13 9 6 4 5 7 17 14 13 10 20 20 24 29 31 31
29 26 26 21 20 11 7 5 5 9 3 9 8 15 20 16 14 15 20 23 14 11 15 19 11 3 5 9 7 15 16 4 5 4 9 4 13 13 6 4 7 20 28 31 31
31 28 24 24 18 21 10 9 15 12 24 5 5 15 15 18 15 19 21 22 27 18 15 17 12 15 14 14 11 22 17 6 8 8 9 4 9 6 4 12 7 5 27 29 31
32 22 25 15 13 19 19 14 12 16 11 11 9 15 17 19 9 18 23 26 27 25 14 18 17 15 11 6 10 17 13 11 1 1 3 7 10 5 7 9 10 14 24 28 31
27 20 20 7 9 22 13 32 15 19 9 9 19 18 19 22 16 21 20 21 27 28 23 13 12 12 5 5 6 8 11 7 4 6 7 8 10 5 14 15 14 15 24 28 29
19 11 6 12 10 13 15 18 18 40 32 10 16 23 20 16 24 24 14 13 32 29 25 10 5 7 7 15 17 6 7 7 4 8 7 9 5 2 7 16 18 17 24 28 30
13 5 6 16 6 6 13 19 9 25 24 24 18 17 23 19 22 24 22 16 29 24 31 24 4 7 14 3 4 16 15 17 8 9 7 4 2 1 2 13 18 22 25 27 28
17 20 15 5 6 12 12 13 23 28 23 22 23 19 16 18 12 22 15 7 17 22 21 19 11 7 5 1 3 8 15 16 5 5 12 8 4 4 7 10 18 24 26 27 27
10 5 16 11 7 3 10 19 17 16 25 32 30 27 26 19 18 7 17 3 11 19 12 19 10 19 16 12 14 13 19 17 12 4 11 13 6 11 12 15 18 23 26 28 27
7 5 12 6 10 20 17 13 24 20 16 26 23 32 30 22 20 18 14 5 7 7 10 15 7 18 19 1 11 11 22 23 19 22 11 17 15 11 16 16 20 25 26 27 27
9 5 8 20 21 18 19 16 20 13 9 19 16 31 32 30 25 14 12 9 6 10 14 9 1 2 2 3 7 5 16 23 25 20 18 5 9 2 19 21 24 27 28 27 26
12 15 12 12 13 14 16 17 22 23 19 22 27 24 31 34 29 28 16 7 8 12 18 13 7 4 9 7 5 4 19 19 21 20 21 17 7 11 14 16 24 28 28 27 26
Wind_Direction
323 319 318 317 316 316 323 318 324 332 342 341 334 316 296 268 256 239 226 224 234 243 272 214 204 199 181 178 171 196 336 205 236 228 26 147 183 191 165 134 167 161 112 128 167
330 312 308 306 307 306 314 314 317 325 341 331 321 311 303 285 244 244 235 230 238 240 235 206 205 192 189 175 147 135 149 298 7 337 334 249 222 178 174 161 171 156 133 151 161
338 327 306 299 298 300 304 312 311 315 330 327 312 303 280 276 275 266 254 234 248 237 220 220 214 206 220 191 175 178 180 224 313 357 330 291 227 206 220 197 196 188 161 162 163
342 340 322 304 295 293 298 300 309 305 312 329 317 303 268 239 257 305 239 231 250 215 220 216 214 212 214 204 181 159 156 201 275 358 329 294 259 230 225 83 184 189 171 165 169
340 340 332 318 296 291 295 295 304 298 294 316 317 298 264 247 251 294 312 228 228 202 215 211 215 211 219 209 187 223 189 176 230 323 301 285 252 240 230 187 143 157 162 168 171
334 334 335 331 307 290 288 290 293 293 284 284 306 292 247 262 263 238 261 193 191 201 208 212 221 217 280 237 204 204 186 183 196 259 284 271 245 235 223 174 160 165 167 171 175
325 326 330 335 317 297 287 282 282 278 282 266 262 270 251 247 277 238 236 233 213 210 210 216 219 231 309 257 201 147 141 174 172 211 288 276 251 229 204 175 176 177 173 174 178
330 323 322 328 328 307 290 280 274 272 259 258 235 220 250 265 237 251 240 228 220 221 226 230 225 253 253 306 158 175 154 178 187 172 221 193 264 230 193 181 185 183 176 178 181
324 325 321 318 323 317 298 281 275 264 254 248 236 235 258 242 240 237 217 213 212 213 225 230 211 224 254 226 190 199 185 192 165 193 157 186 259 193 177 192 191 188 184 182 182
306 311 318 319 313 311 301 286 271 265 241 223 225 221 238 232 221 217 218 212 189 184 205 215 201 200 224 207 206 189 207 198 173 184 188 198 233 215 201 208 200 193 188 186 185
298 302 306 312 314 309 303 291 265 235 212 212 205 198 290 193 208 218 204 196 189 190 198 200 177 211 211 208 224 211 210 186 190 158 168 220 240 238 203 210 210 197 191 190 189
299 286 297 302 315 306 285 233 272 277 281 243 245 236 236 198 182 206 193 183 197 202 205 185 202 218 217 216 225 253 197 190 118 145 193 221 243 239 223 209 209 200 194 190 187
323 307 292 293 313 300 285 256 266 272 267 261 238 233 222 213 217 199 192 202 192 203 208 203 214 213 225 210 215 230 202 194 189 116 221 289 261 243 227 211 210 210 200 193 191
336 329 316 293 297 277 305 297 271 212 269 257 198 242 204 200 226 215 198 185 206 207 214 225 226 205 214 212 210 214 224 158 133 139 230 184 260 229 209 205 207 205 200 193 192
329 327 327 297 280 290 269 291 192 168 275 138 151 158 176 190 121 192 196 187 218 202 199 202 227 205 216 217 205 221 158 178 173 203 278 196 251 243 191 208 207 204 199 191 190
320 322 322 311 269 275 281 218 168 229 238 202 157 174 167 205 176 139 190 208 227 218 206 217 325 223 234 223 223 136 121 133 184 224 242 235 215 240 188 215 213 200 195 187 184
323 312 308 291 265 235 285 197 211 232 142 182 193 181 185 182 189 175 190 198 189 178 201 213 219 163 206 174 172 178 161 152 184 192 239 226 217 241 109 156 214 186 189 182 180
319 317 309 288 258 236 248 220 229 220 219 95 172 178 192 174 203 188 187 205 220 214 177 196 208 192 199 208 191 199 187 182 201 200 212 152 224 227 83 132 135 201 178 176 176
324 324 310 294 251 220 216 223 220 223 269 190 160 190 202 196 187 187 208 205 211 217 185 193 216 152 191 194 196 199 217 242 248 293 251 189 239 157 154 162 156 170 170 175 177
329 316 296 284 244 207 228 232 223 253 315 213 216 206 199 194 196 191 197 210 206 216 240 195 194 199 157 188 239 219 178 182 234 191 229 199 226 224 193 178 165 164 172 174 174
333 316 287 318 212 214 230 233 244 258 277 255 249 259 236 198 202 196 210 203 200 200 213 240 182 158 159 209 188 165 192 218 237 245 242 243 214 6 184 178 169 167 170 170 168
328 290 253 315 268 243 250 249 228 271 265 253 269 284 278 227 207 210 216 200 196 194 197 211 184 168 198 70 298 236 214 204 209 193 233 338 243 69 77 151 163 162 161 162 163
313 291 295 244 245 248 282 305 289 253 258 273 260 243 268 260 228 222 224 219 174 190 189 188 198 141 167 202 217 219 217 231 204 337 207 205 213 122 126 144 158 155 158 158 158
306 298 291 261 263 288 330 311 301 306 264 257 257 258 254 247 238 242 212 137 192 195 206 173 225 214 208 204 146 201 210 208 194 198 199 224 166 182 172 164 160 157 158 157 157
289 283 316 307 313 319 301 288 287 290 281 252 258 244 251 248 241 226 219 134 188 210 196 182 236 215 237 181 178 191 193 190 201 220 203 228 230 187 181 171 166 161 158 158 160
284 297 298 291 296 295 296 284 288 306 323 297 289 245 230 246 237 217 201 190 182 182 196 200 238 174 149 165 203 212 204 201 212 217 233 217 233 359 154 156 161 164 162 162 161
283 284 273 282 295 293 283 293 312 311 301 291 297 272 234 234 242 266 221 222 159 177 188 176 140 162 216 159 132 279 215 201 214 217 214 215 186 150 150 164 168 164 167 164 161